Regional Weather Roundup
Issued by NWS

Home | Current Version | Previous Version | Text Only | Print | Product List | Glossary On
Versions: 1 2 3 4 5 6 7 8 9 10 11 12 13 14 15 16 17 18 19 20 21 22 23 24 25 26 27 28 29 30 31 32 33 34 35 36 37 38 39 40 41 42 43 44 45 46 47 48 49 50
000
ASHW40 PHFO 271310
RWRHI

WEATHER ROUNDUP FOR HAWAII
NATIONAL WEATHER SERVICE HONOLULU HI
300 AM HST THU NOV 27 2014

THIS IS AN AUTOMATED REPORT THAT HAS NOT BEEN QUALITY CONTROLLED.

NOTE..."FAIR" INDICATES FEW OR NO CLOUDS BELOW 12,000 FEET WITH NO
SIGNIFICANT WEATHER AND/OR OBSTRUCTIONS TO VISIBILITY.

* - THESE SITES REPORT LIMITED FIELDS

HIZ001>004-271400-
KAUAI-NIIHAU-

CITY           SKY/WX    TMP DP  RH WIND       PRES   REMARKS
LIHUE APT      MOCLDY    74  58  57 NE18      30.10F
PORT ALLEN*      N/A     73 N/A N/A NE16G24     N/A
POIPU*           N/A     73 N/A N/A NE10G24     N/A
PRINCEVILLE*     N/A     72 N/A N/A MISG        N/A
KOKOLE POINT*  NOT AVBL
MOLOAA DAIRY*  NOT AVBL
WAIMEA HTS*    NOT AVBL
PUU OPAE*      NOT AVBL
PUU LUA*       NOT AVBL
MAKAHA RIDGE*  NOT AVBL
$$

HIZ005>011-271400-
OAHU-

CITY           SKY/WX    TMP DP  RH WIND       PRES   REMARKS
HONOLULU       MOCLDY    75  61  61 NE10G20   30.04F
KALAELOA       PTCLDY    71  60  68 VRB5      30.07F
KANEOHE MCB    PTCLDY    74  63  68 NE15G25   30.07F
WHEELER FIELD  MOCLDY    70  60  70 NE9       30.07F
BELLOWS*       NOT AVBL
KAHUKU*        NOT AVBL
WHEELER*       NOT AVBL
WAIANAE HARBOR NOT AVBL
DILLINGHAM*      N/A     70  59  68 E3G12       N/A
KAHUKU TRN*      N/A     72  59  64 NE12G24     N/A
KAWAILOA*        N/A     68  59  73 NE12G20     N/A
KII*             N/A    N/A N/A N/A NE18G28     N/A
MAKUA RANGE*     N/A    N/A N/A N/A E5G25       N/A
OAHU FOREST NW NOT AVBL
SCHOFIELD BRK*   N/A     66  59  77 MISG        N/A
SCHOFIELD S*   NOT AVBL
WAIANAE VLY*   NOT AVBL
KUAOKALA*      NOT AVBL
HONOULIUULI*   NOT AVBL
MOKUOLOE IS*     N/A    N/A N/A N/A MISG        N/A
PALEHUA*       NOT AVBL
WAIAWA PHB*    NOT AVBL
$$

HIZ012>013-271400-
MOLOKAI-

CITY           SKY/WX    TMP DP  RH WIND       PRES   REMARKS
MOLOKAI AIRPT  MOCLDY    71  63  75 NE12G23   30.06F
KALAUPAPA      NOT AVBL
MAKAPULAPAI*   NOT AVBL
MOLOKAI 1*     NOT AVBL
PUU ALII*      NOT AVBL
$$

HIZ016-271400-
KAHOOLAWE-

CITY           SKY/WX    TMP DP  RH WIND       PRES   REMARKS
KAHOOLAWE*     NOT AVBL
HAKIOAWA*      NOT AVBL
HONOKANAIA*      N/A     73  64  73 N10G22    30.05F
KANELOA*         N/A     70  63  78 VRB14G20  29.26F
KEALIALALO*    NOT AVBL
LUA MAKIKA*    NOT AVBL
$$

HIZ014>015-271400-
LANAI-

CITY           SKY/WX    TMP DP  RH WIND       PRES   REMARKS
LANAI CITY       N/A     68  62  80 NE13G28   30.08S
LANAI 1*       NOT AVBL
$$

HIZ017>028-271400-
MAUI-

CITY           SKY/WX    TMP DP  RH WIND       PRES   REMARKS
KAHULUI        LGT RAIN  70  65  84 NE6       30.06F
KAPALUA-W MAUI NOT AVBL
HANA AIRPORT   MOCLDY    73  64  73 NE6       30.10S
HANA*          NOT AVBL
HALEAKALA SUMM   N/A     48  14  25 NE12        N/A
MAALAEA BAY*   NOT AVBL
HALEAKALA*     NOT AVBL
KAUPO GAP*     NOT AVBL
KULA 1*          N/A     51  11  20 E3          N/A
$$

HIZ023>026-271400-
BIG ISLAND OF HAWAII COAST AND LOWER SLOPES-

CITY           SKY/WX    TMP DP  RH WIND       PRES   REMARKS
KAILUA KONA    CLEAR     74  60  61 N14       29.97F
HILO           CLOUDY    73  66  78 NE6       30.04F
HONOKAA*       NOT AVBL
KAWAIHAE MWT*  NOT AVBL
KAWAIHAE*        N/A     79 N/A N/A W3          N/A
SOUTH POINT*   NOT AVBL
UPOLU AIRPORT* NOT AVBL
KAMUELA*       LGT RAIN  61  59  94 NE14      30.11S VSB 1/2
HAKALAU*         N/A     43  43 100 W3          N/A
KALOKO-HONOKO* NOT AVBL
PALI 2*          N/A     61  55  82 N20G30      N/A
KEALAKOMO*       N/A     73  64  73 NE17G26     N/A
KAUPULEHU*     NOT AVBL
KAPAPALA*        N/A     59  55  87 CALM        N/A
LOWER KAHUKU*  NOT AVBL
PUHE CS*       NOT AVBL
PUHO CS*       NOT AVBL
PTA KEAMUKU*     N/A     57  55  94 CALM        N/A
WAIKOLOA*      NOT AVBL
$$

HIZ027>028-271400-
BIG ISLAND OF HAWAII INTERIOR AND SUMMMITS-

CITY           SKY/WX    TMP DP  RH WIND       PRES   REMARKS
BRADSHAW FIELD CLOUDY    41  31  65 SE7       30.31F
MK VISITOR CEN NOT AVBL
MAUNA KEA*       N/A     39   7  26 NW1         N/A
MAUNA LOA*       N/A     43   9  24 MISG        N/A
MAUNA LOA 1*   NOT AVBL
PTA KIPUKA*      N/A     46  43  87 SE6         N/A
PTA RANGE 17*    N/A     48  41  76 SE3G10      N/A
PTA WEST*        N/A     52  46  82 SE10        N/A
NENE CABIN*    NOT AVBL
AHUMOA*        NOT AVBL
PTA PORTABLE*  NOT AVBL
PUU MALI*      NOT AVBL
$$

HIC003-271400-
NORTHWEST ISLANDS-

CITY           SKY/WX    TMP DP  RH WIND       PRES   REMARKS
MIDWAY ISLAND  PTCLDY    73  66  78 SE18G25   30.08F
MIDWAY NOS*    NOT AVBL
FRENCH FRIGATE NOT AVBL
$$

PHZ110>124-180-271400-
BUOY REPORTS

STATION/POSITION TIME  TEMP    WIND        PRES    WAVE   SWELL
                       AIR SEA DIR/SP/G            HT/PER HT/DIR
                 (UTC) (F)     (DEG/KT/KT) (MB)    (FT/S) (FT/D)
BUOY 51001       NOT AVBL
BUOY 51101       1300   74 77   40/ 16/ 19 1020.7F   8/14   7/ 20
BUOY 51100       1300   73 78   60/ 14     1018.9F
BUOY 51003       1200   78 80   50/ 19/ 25 1016.4F  10/11   7
BUOY 51004       1215   78 80   60/ 17/ 21 1013.4   10/15   8/360
BARBERS PT BUOY  NOT AVBL
WAIMEA BAY BUOY  1300      79                N/A    10/13   7/ 10
KAILUA BAY BUOY  1300      79                N/A    10/13   7
LANAI BUOY       1300      79                N/A     3/12   2/310
BARBERS PT 2     1300      78                N/A     4/12   2/310
PAUWELA MAUI     1300      79                N/A    11/13   8/ 10
HILO             1300      79                N/A    11/12   8
KANEOHE BAY BUOY 1300      78                N/A    10/11   7/ 10
HANALEI KAUAI    NOT AVBL
KAHULUI HARBOR   1300   73 77   50/  5/  7 1017.9S
HONOLULU HARBOR  1300   75      30/  7/ 16 1017.9F
KILO NALU        NOT AVBL
HILO HARBOR      1300   74     360/  9/ 13 1016.8F
MOKUOLOE         1300      75              1018.6F
NAWILIWILI       1300      78                N/A
WHOTS BUOY       NOT AVBL
BUOY 51028       NOT AVBL
$$

......................KEY........................................
  SKY/WX - SKY CONDITIONS/PRESENT WEATHER
  TMP    - TEMPERATURE IN FAHRENHEIT
  DWPT   - DEWPOINT IN FAHRENHEIT
  RH     - RELATIVE HUMIDITY IN PERCENT
  WIND   - DIRECTION AND SPEED /MPH FOR ISLANDS...KTS FOR BUOYS/
  PRES   - MEAN SEA LEVEL PRESSURE IN INCHES OF HG
  VSB    - VISIBILITY IN MILES
  HX     - HEAT INDEX
  WCI    - WIND CHILL INDEX
  VRB    - VARIABLE WIND DIRECTION
  N/A    - NOT AVAILABLE


USA.gov is the U.S. government's official web portal to all federal, state and local government web resources and services.